Weather in Vasilyevka

Russia / Orenburg Oblast     51°51′31″N   56°25′12″E
temp.,
°C
wind,
m/s
gust,
m/s
humid.,
%
clouds,
%
prec.,
mm/h
press.,
hPa
HPBL,
m
12 august, fri
fri1223:00+22nne3558100 0.0 101893
02:00+21ne236591 0.0 101856
05:00+19n357784 0.0 101896
08:00+21nne476214 0.0 1019300
11:00+27n44375 0.0 10191227
14:00+30n65185 0.0 10181896
17:00+29nnw66180 0.0 10181932
20:00+25nnw593216 0.0 1018353
13 august, sat
sat1323:00+17n36565 0.0 102097
02:00+15nne34665 0.0 102045
05:00+14nne33700 0.0 102028
08:00+18nne24521 0.0 1021183
11:00+25n33310 0.0 10191130
14:00+29n44235 0.0 10181824
17:00+30nnw54245 0.0 10162009
20:00+26n48365 0.0 1017251
14 august, sun
sun1423:00+19nne35575 0.0 101774
02:00+18ne33675 0.0 101739
05:00+16ne22731 0.0 101821
08:00+21ene36536 0.0 1018243
11:00+27ene443439 0.0 10171520
14:00+30ne32269 0.0 10162389
17:00+31ne422421 0.0 10152825
20:00+27n473525 0.0 1015253
15 august, mon
mon1523:00+21ene345294 0.0 101658
02:00+20e5125181 0.0 1016360
05:00+19e6134688 0.0 1017354
08:00+21e7123473 0.0 1018499
11:00+26ese7827100 0.0 10181069
14:00+29e65249 0.0 10181869
17:00+30ese54240 0.0 10172364
20:00+26e58300 0.0 1018242
16 august, tue
tue1623:00+20ese512400 0.0 1019233
02:00+17e22470 0.0 102030
05:00+15ne22500 0.0 102114
08:00+20ene23370 0.0 1022171
11:00+26se33250 0.0 10211433
14:00+29se22220 0.0 10202611
17:00+31e01202 0.0 10193074
20:00+26n22281 0.0 101934